Location: Newark
(41.8083°N, 72.2500°W)
Time: 21:01:48
(UTC+00:00)

Courier 1B - Pass Details

Date: 03 December 2021
Orbit: 962 x 1209 km, 28.3° (Epoch: 19 January)

Event Time Altitude Azimuth Distance (km) Brightness Sun altitude
Rises 21:41:42 0° 231° (SW) 4,028 12.7 -4.7°
Reaches altitude 10° 21:45:11 10° 218° (SW) 3,031 11.3 -5.2°
Maximum altitude 21:50:48 23° 169° (SSE) 2,142 9.5 -6.2°
Drops below altitude 10° 21:56:11 10° 119° (ESE) 2,894 9.6 -7.1°
Sets 21:59:25 0° 106° (ESE) 3,806 10.1 -7.7°
Enters shadow 21:59:27 - 106° (ESE) 3,814 10.1 -7.7°
